Regional Weather Roundup
Issued by NWS

Home | Current Version | Previous Version | Text Only | Print | Product List | Glossary Off
Versions: 1 2 3 4 5 6 7 8 9 10 11 12 13 14 15 16 17 18 19 20 21 22 23 24 25 26 27 28 29 30 31 32 33 34 35 36 37 38 39 40 41 42 43 44 45 46 47 48 49 50

000
ASUS43 KIND 261409
RWRIN

WEATHER ROUNDUP FOR INDIANA
NATIONAL WEATHER SERVICE INDIANAPOLIS IN
1000 AM EDT THU MAR 26 2015

NOTE: "FAIR" INDICATES FEW OR NO CLOUDS BELOW 12,000 FEET WITH NO
SIGNIFICANT WEATHER AND/OR OBSTRUCTIONS TO VISIBILITY.

* - STATION DOES NOT REPORT WEATHER SUCH AS PRECIPITATION OR FOG.

+ - STATION NOT QUALITY CONTROLLED BY THE NATIONAL WEATHER SERVICE.
    USE DATA WITH CAUTION...ESPECIALLY DEWPOINT AND RELATIVE
    HUMIDITY OBSERVATIONS.

INZ001>003-010>013-019-020-261500-
NORTHWEST INDIANA

CITY           SKY/WX    TMP DP  RH WIND       PRES   REMARKS
GARY /AIRPORT/ PTSUNNY   37  25  60 W9        29.98
KNOX *+          N/A     36  19  51 NW9       29.95S
LA PORTE +     CLOUDY    38  30  73 NW9       29.96S
MICHIGAN CITY+ CLOUDY    36  27  69 N7        29.97S
MONTICELLO +   CLOUDY    36  33  88 NW10G21   29.95F
RENSSELAER +   CLOUDY    36  34  93 NW9       29.97F
VALPARAISO     CLOUDY    37  27  67 NW8       29.96F

$$

LMZ046-743>745-261500-
SOUTHERN LAKE MICHIGAN

STATION/POSITION TIME  TEMP WIND        PRES
                       AIR  DIR/SP/G
                 (UTC) (F)  (DEG/KT/KT) (MB)
BURNS HARBOR     1400   36  320/ 10/ 12 1015.6S
MICHIGAN CITY    1400   34  280/ 13/ 14   N/A

$$

INZ004-005-014>016-021>024-261500-
NORTH CENTRAL INDIANA

CITY           SKY/WX    TMP DP  RH WIND       PRES   REMARKS
ELKHART        CLOUDY    37  27  65 NW9       29.95R
GOSHEN         CLOUDY    37  29  72 NW10      29.93S
LOGANSPORT +   CLOUDY    34  32  93 NW7       29.96S WCI  28
PERU/GRISSOM   CLOUDY    35  33  91 NW8       29.93S WCI  29
ROCHESTER +    CLOUDY    37  34  87 N9        29.95S
SOUTH BEND     CLOUDY    37  29  72 NW12      29.95S
WARSAW +       CLOUDY    36  32  87 N9        29.93S

$$

INZ006>009-017-018-025>027-261500-
NORTHEAST INDIANA

CITY           SKY/WX    TMP DP  RH WIND       PRES   REMARKS
ANGOLA *+      CLOUDY    36  30  80 N9        29.91S
AUBURN +       CLOUDY    36  34  93 NW5       29.92F FOG
FORT WAYNE     LGT SNOW  35  33  92 NW7       29.93S FOG     WCI  29
HUNTINGTON +   LGT RAIN  34  31  90 NW5       29.92F WCI  29

$$

INZ028-029-035-036-043>045-051>053-261500-
WEST CENTRAL INDIANA

CITY           SKY/WX    TMP DP  RH WIND       PRES   REMARKS
CRAWFORDSVL +  CLOUDY    33  29  86 MISG      29.96S
GREENCASTLE +  LGT RAIN  36  32  87 N7        29.96S
LAFAYETTE      CLOUDY    35  32  88 NW8       29.97S WCI  29
TERRE HAUTE    LGT RAIN  36  33  89 NW12      29.99R

$$

INZ030>032-037>040-046>048-054>057-064-065-261500-
CENTRAL INDIANA

CITY           SKY/WX    TMP DP  RH WIND       PRES   REMARKS
CP ATTERBURY + LGT RAIN  41  37  87 NW10      29.94R
FRANKFORT +    CLOUDY    36  36 100 NW8       29.96S
GREENWOOD *+   CLOUDY    39  36  87 N7        29.94R
INDIANAPOLIS   LGT RAIN  38  35  89 N14       29.93S FOG
-EAGLE CREEK   LGT RAIN  38  35  89 NW13      29.93R FOG
KOKOMO *+      CLOUDY    36  32  87 N9        29.94S
MARION +       LGT RAIN  34  34 100 N9        29.93S WCI  26
MT COMFORT *+  CLOUDY    39 N/A N/A N9        29.93R
SHELBYVILLE    LGT RAIN  41  38  89 N10       29.92R FOG
ZIONSVILLE +   RAIN      37  34  88 NW10      29.94S

$$

INZ033-034-041-042-049-050-058-059-261500-
EAST CENTRAL INDIANA

CITY           SKY/WX    TMP DP  RH WIND       PRES   REMARKS
MUNCIE         LGT RAIN  39  37  92 N8        29.91S FOG

$$

INZ060-061-067>069-081>083-085>088-261500-
SOUTHWEST INDIANA

CITY           SKY/WX    TMP DP  RH WIND       PRES   REMARKS
EVANSVILLE     LGT RAIN  44  39  82 N13       29.97R
HUNTINGBURG *+ CLOUDY    43  39  87 N10       29.95S
WASHINGTON +   DRIZZLE   40  37  87 NW12      29.96R

$$

INZ062-063-066-070>080-084-089>092-261500-
SOUTH CENTRAL AND SOUTHEAST INDIANA

CITY           SKY/WX    TMP DP  RH WIND       PRES   REMARKS
BEDFORD +      RAIN      41  39  93 NW6       29.93R
BLOOMINGTON    LGT RAIN  40  38  93 N6        29.94R FOG
NORTH VERNON + RAIN      43  43 100 NW13      29.91R
SEYMOUR +      RAIN      43  41  93 NW12      29.93R

$$



USA.gov is the U.S. government's official web portal to all federal, state and local government web resources and services.